Weather History for Rhinelander, WI

Change the Weather History Date:

Saturday, August 3, 2013

  Actual Average Record
Temperature  
Mean Temperature 58 °F 66 °F  
Max Temperature 72 °F 79 °F 92 °F (1964)
Min Temperature 44 °F 54 °F 41 °F (1912)
Degree Days  
Heating Degree Days 7 2  
Month to date heating degree days 16 4  
Since 1 June heating degree days 274 189  
Since 1 July heating degree days 100 55  
Cooling Degree Days 0 3  
Month to date cooling degree days 0 9  
Year to date cooling degree days 186 179  
Since 1 June cooling degree days 172 167  
Growing Degree Days 8 (Base 50)    
Moisture  
Dew Point 47 °F    
Average Humidity 65    
Maximum Humidity 93    
Minimum Humidity 37    
Precipitation  
Precipitation 0.00 in 0.11 in 2.14 in (1974)
Month to date precipitation 0.06 0.32  
Year to date precipitation 21.43 17.91  
Snow  
Snow 0.00 in - 0.00 in ()
Month to date snowfall 0.0  
Since 1 June snowfall 0.0  
Since 1 July snowfall 0.0  
Snow Depth 0.00 in    
Sea Level Pressure  
Sea Level Pressure 30.12 in    
Wind  
Wind Speed 5 mph (NW)    
Max Wind Speed 14 mph    
Max Gust Speed 21 mph    
Visibility 9 miles    
Events      
T = Trace of Precipitation, MM = Missing Value Source: NWS Daily Summary

Daily Weather History Graph

Daily Weather History Graph

Search for Another Location

Airport:

Trip Planner

Search our weather history database for the weather conditions in past years. The results will help you decide how hot, cold, wet, or windy it might be!

Date:

Astronomy

Aug. 03, 2013 Rise Set
Actual Time 5:44 AM CDT 8:23 PM CDT
Civil Twilight 5:10 AM CDT 8:57 PM CDT
Nautical Twilight 4:27 AM CDT 9:39 PM CDT
Astronomical Twilight 3:37 AM CDT 10:28 PM CDT
Moon 2:51 AM CDT (8/3) 6:07 PM CDT (8/3)
Length of Visible Light 15h 46m
Length of Day
14h 39m
Waning Crescent, 9% of the Moon is Illuminated
Aug 3
Waning Crescent
Aug 6
New
Aug 14
First Quarter
Aug 20
Full
Aug 28
Last Quarter

Hourly Weather History & Observations

Time (CDT) Temp. Windchill Dew Point Humidity Pressure Visibility Wind Dir Wind Speed Gust Speed Precip Events Conditions
12:53 AM 54.0 °F - 50.0 °F 86% 30.03 in 10.0 mi WNW 4.6 mph - N/A   Clear
1:53 AM 54.0 °F - 48.9 °F 83% 30.04 in 10.0 mi NW 3.5 mph - N/A   Clear
2:53 AM 53.1 °F - 48.9 °F 86% 30.05 in 10.0 mi Calm Calm - N/A   Clear
3:53 AM 51.1 °F - 48.0 °F 89% 30.06 in 10.0 mi Calm Calm - N/A   Clear
4:53 AM 48.9 °F - 46.9 °F 93% 30.06 in 10.0 mi Calm Calm - N/A   Clear
5:53 AM 44.1 °F 42.5 °F 43.0 °F 96% 30.09 in 4.0 mi WSW 3.5 mph - N/A   Clear
5:55 AM 44.6 °F 43.1 °F 42.8 °F 93% 30.08 in 1.8 mi WSW 3.5 mph - N/A   Clear
6:13 AM 44.6 °F - 42.8 °F 93% 30.09 in 10.0 mi Calm Calm - N/A   Clear
6:53 AM 54.0 °F - 50.0 °F 86% 30.09 in 10.0 mi Calm Calm - N/A   Clear
7:53 AM 57.9 °F - 50.0 °F 75% 30.10 in 10.0 mi NW 3.5 mph - N/A   Clear
8:53 AM 62.1 °F - 50.0 °F 65% 30.10 in 10.0 mi WNW 5.8 mph - N/A   Clear
9:53 AM 66.0 °F - 50.0 °F 56% 30.11 in 10.0 mi WNW 8.1 mph - N/A   Clear
10:53 AM 66.0 °F - 48.0 °F 52% 30.13 in 10.0 mi Variable 5.8 mph - N/A   Scattered Clouds
11:53 AM 66.9 °F - 46.0 °F 47% 30.13 in 10.0 mi NNW 10.4 mph - N/A   Scattered Clouds
12:53 PM 68.0 °F - 46.9 °F 47% 30.12 in 10.0 mi WNW 9.2 mph 17.3 mph N/A   Partly Cloudy
1:53 PM 69.1 °F - 46.0 °F 44% 30.12 in 10.0 mi North 9.2 mph 16.1 mph N/A   Partly Cloudy
2:53 PM 71.1 °F - 46.9 °F 42% 30.12 in 10.0 mi NNW 9.2 mph - N/A   Clear
3:53 PM 70.0 °F - 42.1 °F 36% 30.13 in 10.0 mi NNW 9.2 mph - N/A   Mostly Cloudy
4:53 PM 70.0 °F - 44.1 °F 39% 30.12 in 10.0 mi NW 10.4 mph - N/A   Partly Cloudy
5:53 PM 69.1 °F - 46.9 °F 45% 30.14 in 10.0 mi North 10.4 mph 16.1 mph N/A   Scattered Clouds
6:53 PM 66.9 °F - 46.9 °F 49% 30.14 in 10.0 mi Variable 5.8 mph - N/A   Scattered Clouds
7:53 PM 63.0 °F - 46.9 °F 56% 30.15 in 10.0 mi NNW 5.8 mph - N/A   Clear
8:53 PM 60.1 °F - 48.0 °F 64% 30.17 in 10.0 mi North 3.5 mph - N/A   Clear
9:53 PM 55.9 °F - 48.0 °F 75% 30.18 in 10.0 mi Calm Calm - N/A   Clear
10:53 PM 48.9 °F - 46.0 °F 90% 30.20 in 10.0 mi Calm Calm - N/A   Clear
11:53 PM 46.9 °F - 45.0 °F 93% 30.22 in 2.0 mi West 3.5 mph - N/A   Clear
11:57 PM 46.4 °F 45.2 °F 44.6 °F 93% 30.20 in 0.8 mi WSW 3.5 mph - N/A   Clear